owner,sensor,date,latitude,longitude,sea_surface_height_above_sea_level,qcFlag 
COMPS,ioos:station:USF.COMPS:ARP:1,2014-06-01T00:00:00Z,28.4330,-82.6670,0.214,1111122 
COMPS,ioos:station:USF.COMPS:ARP:1,2014-06-01T00:06:00Z,28.4330,-82.6670,0.202,1111122 
COMPS,ioos:station:USF.COMPS:ARP:1,2014-06-01T00:12:00Z,28.4330,-82.6670,0.188,1111122 
COMPS,ioos:station:USF.COMPS:ARP:1,2014-06-01T00:18:00Z,28.4330,-82.6670,0.176,1111122 
COMPS,ioos:station:USF.COMPS:ARP:1,2014-06-01T00:24:00Z,28.4330,-82.6670,0.164,1111122 
COMPS,ioos:station:USF.COMPS:ARP:1,2014-06-01T00:30:00Z,28.4330,-82.6670,0.151,1111122 
COMPS,ioos:station:USF.COMPS:ARP:1,2014-06-01T00:36:00Z,28.4330,-82.6670,0.138,1111122 
COMPS,ioos:station:USF.COMPS:ARP:1,2014-06-01T00:42:00Z,28.4330,-82.6670,0.125,1111122 
COMPS,ioos:station:USF.COMPS:ARP:1,2014-06-01T00:48:00Z,28.4330,-82.6670,0.111,1111122 
COMPS,ioos:station:USF.COMPS:ARP:1,2014-06-01T00:54:00Z,28.4330,-82.6670,0.1,1111122 
COMPS,ioos:station:USF.COMPS:ARP:1,2014-06-01T01:00:00Z,28.4330,-82.6670,0.089,1111122 
COMPS,ioos:station:USF.COMPS:ARP:1,2014-06-01T01:06:00Z,28.4330,-82.6670,0.079,1111122 
COMPS,ioos:station:USF.COMPS:ARP:1,2014-06-01T01:12:00Z,28.4330,-82.6670,0.07,1111122 
COMPS,ioos:station:USF.COMPS:ARP:1,2014-06-01T01:18:00Z,28.4330,-82.6670,0.06,1111122 
COMPS,ioos:station:USF.COMPS:ARP:1,2014-06-01T01:24:00Z,28.4330,-82.6670,0.05,1111122 
COMPS,ioos:station:USF.COMPS:ARP:1,2014-06-01T01:30:00Z,28.4330,-82.6670,0.039,1111122 
COMPS,ioos:station:USF.COMPS:ARP:1,2014-06-01T01:36:00Z,28.4330,-82.6670,0.028,1111122 
COMPS,ioos:station:USF.COMPS:ARP:1,2014-06-01T01:42:00Z,28.4330,-82.6670,0.019,1111122 
COMPS,ioos:station:USF.COMPS:ARP:1,2014-06-01T01:48:00Z,28.4330,-82.6670,0.011,1111122 
COMPS,ioos:station:USF.COMPS:ARP:1,2014-06-01T01:54:00Z,28.4330,-82.6670,0.001,1111122 
COMPS,ioos:station:USF.COMPS:ARP:1,2014-06-01T02:00:00Z,28.4330,-82.6670,-0.008,1111122 
COMPS,ioos:station:USF.COMPS:ARP:1,2014-06-01T02:06:00Z,28.4330,-82.6670,-0.018,1111122 
COMPS,ioos:station:USF.COMPS:ARP:1,2014-06-01T02:12:00Z,28.4330,-82.6670,-0.026,1111122 
COMPS,ioos:station:USF.COMPS:ARP:1,2014-06-01T02:18:00Z,28.4330,-82.6670,-0.034,1111122 
COMPS,ioos:station:USF.COMPS:ARP:1,2014-06-01T02:24:00Z,28.4330,-82.6670,-0.042,1111122 
COMPS,ioos:station:USF.COMPS:ARP:1,2014-06-01T02:30:00Z,28.4330,-82.6670,-0.048,1111122 
COMPS,ioos:station:USF.COMPS:ARP:1,2014-06-01T02:36:00Z,28.4330,-82.6670,-0.054,1111122 
COMPS,ioos:station:USF.COMPS:ARP:1,2014-06-01T02:42:00Z,28.4330,-82.6670,-0.06,1111122 
COMPS,ioos:station:USF.COMPS:ARP:1,2014-06-01T02:48:00Z,28.4330,-82.6670,-0.066,1111122 
COMPS,ioos:station:USF.COMPS:ARP:1,2014-06-01T02:54:00Z,28.4330,-82.6670,-0.072,1111122 
COMPS,ioos:station:USF.COMPS:ARP:1,2014-06-01T03:00:00Z,28.4330,-82.6670,-0.072,1111122 
COMPS,ioos:station:USF.COMPS:ARP:1,2014-06-01T03:06:00Z,28.4330,-82.6670,-0.084,1111122 
COMPS,ioos:station:USF.COMPS:ARP:1,2014-06-01T03:12:00Z,28.4330,-82.6670,-0.087,1111122 
COMPS,ioos:station:USF.COMPS:ARP:1,2014-06-01T03:18:00Z,28.4330,-82.6670,-0.09,1111122 
COMPS,ioos:station:USF.COMPS:ARP:1,2014-06-01T03:24:00Z,28.4330,-82.6670,-0.094,1111122 
COMPS,ioos:station:USF.COMPS:ARP:1,2014-06-01T03:30:00Z,28.4330,-82.6670,-0.1,1111122 
COMPS,ioos:station:USF.COMPS:ARP:1,2014-06-01T03:36:00Z,28.4330,-82.6670,-0.105,1111122 
COMPS,ioos:station:USF.COMPS:ARP:1,2014-06-01T03:42:00Z,28.4330,-82.6670,-0.109,1111122 
COMPS,ioos:station:USF.COMPS:ARP:1,2014-06-01T03:48:00Z,28.4330,-82.6670,-0.111,1111122 
COMPS,ioos:station:USF.COMPS:ARP:1,2014-06-01T03:54:00Z,28.4330,-82.6670,-0.111,1111122 
COMPS,ioos:station:USF.COMPS:ARP:1,2014-06-01T04:00:00Z,28.4330,-82.6670,-0.113,1111122 
COMPS,ioos:station:USF.COMPS:ARP:1,2014-06-01T04:06:00Z,28.4330,-82.6670,-0.115,1111122 
COMPS,ioos:station:USF.COMPS:ARP:1,2014-06-01T04:12:00Z,28.4330,-82.6670,-0.117,1111122 
COMPS,ioos:station:USF.COMPS:ARP:1,2014-06-01T04:18:00Z,28.4330,-82.6670,-0.118,1111122 
COMPS,ioos:station:USF.COMPS:ARP:1,2014-06-01T04:24:00Z,28.4330,-82.6670,-0.115,1111122 
COMPS,ioos:station:USF.COMPS:ARP:1,2014-06-01T04:30:00Z,28.4330,-82.6670,-0.111,1111122 
COMPS,ioos:station:USF.COMPS:ARP:1,2014-06-01T04:36:00Z,28.4330,-82.6670,-0.108,1111122 
COMPS,ioos:station:USF.COMPS:ARP:1,2014-06-01T04:42:00Z,28.4330,-82.6670,-0.103,1111122 
COMPS,ioos:station:USF.COMPS:ARP:1,2014-06-01T04:48:00Z,28.4330,-82.6670,-0.096,1111122 
COMPS,ioos:station:USF.COMPS:ARP:1,2014-06-01T04:54:00Z,28.4330,-82.6670,-0.09,1111122 
COMPS,ioos:station:USF.COMPS:ARP:1,2014-06-01T05:00:00Z,28.4330,-82.6670,-0.083,1111122 
COMPS,ioos:station:USF.COMPS:ARP:1,2014-06-01T05:06:00Z,28.4330,-82.6670,-0.075,1111122 
COMPS,ioos:station:USF.COMPS:ARP:1,2014-06-01T05:12:00Z,28.4330,-82.6670,-0.067,1111122 
COMPS,ioos:station:USF.COMPS:ARP:1,2014-06-01T05:18:00Z,28.4330,-82.6670,-0.056,1111122 
COMPS,ioos:station:USF.COMPS:ARP:1,2014-06-01T05:24:00Z,28.4330,-82.6670,-0.044,1111122 
COMPS,ioos:station:USF.COMPS:ARP:1,2014-06-01T05:30:00Z,28.4330,-82.6670,-0.035,1111122 
COMPS,ioos:station:USF.COMPS:ARP:1,2014-06-01T05:36:00Z,28.4330,-82.6670,-0.019,1111122 
COMPS,ioos:station:USF.COMPS:ARP:1,2014-06-01T05:42:00Z,28.4330,-82.6670,-0.006,1111122 
COMPS,ioos:station:USF.COMPS:ARP:1,2014-06-01T05:48:00Z,28.4330,-82.6670,0.009,1111122 
COMPS,ioos:station:USF.COMPS:ARP:1,2014-06-01T05:54:00Z,28.4330,-82.6670,0.025,1111122 
COMPS,ioos:station:USF.COMPS:ARP:1,2014-06-01T06:00:00Z,28.4330,-82.6670,0.044,1111122 
COMPS,ioos:station:USF.COMPS:ARP:1,2014-06-01T06:06:00Z,28.4330,-82.6670,0.062,1111122 
COMPS,ioos:station:USF.COMPS:ARP:1,2014-06-01T06:12:00Z,28.4330,-82.6670,0.083,1111122 
COMPS,ioos:station:USF.COMPS:ARP:1,2014-06-01T06:18:00Z,28.4330,-82.6670,0.106,1111122 
COMPS,ioos:station:USF.COMPS:ARP:1,2014-06-01T06:24:00Z,28.4330,-82.6670,0.131,1111122 
COMPS,ioos:station:USF.COMPS:ARP:1,2014-06-01T06:30:00Z,28.4330,-82.6670,0.158,1111122 
COMPS,ioos:station:USF.COMPS:ARP:1,2014-06-01T06:36:00Z,28.4330,-82.6670,0.185,1111122 
COMPS,ioos:station:USF.COMPS:ARP:1,2014-06-01T06:42:00Z,28.4330,-82.6670,0.216,1111122 
COMPS,ioos:station:USF.COMPS:ARP:1,2014-06-01T06:48:00Z,28.4330,-82.6670,0.246,1111122 
COMPS,ioos:station:USF.COMPS:ARP:1,2014-06-01T06:54:00Z,28.4330,-82.6670,0.28,1111122 
COMPS,ioos:station:USF.COMPS:ARP:1,2014-06-01T07:00:00Z,28.4330,-82.6670,0.313,1111122 
COMPS,ioos:station:USF.COMPS:ARP:1,2014-06-01T07:06:00Z,28.4330,-82.6670,0.346,1111122 
COMPS,ioos:station:USF.COMPS:ARP:1,2014-06-01T07:12:00Z,28.4330,-82.6670,0.377,1111122 
COMPS,ioos:station:USF.COMPS:ARP:1,2014-06-01T07:18:00Z,28.4330,-82.6670,0.407,1111122 
COMPS,ioos:station:USF.COMPS:ARP:1,2014-06-01T07:24:00Z,28.4330,-82.6670,0.437,1111122 
COMPS,ioos:station:USF.COMPS:ARP:1,2014-06-01T07:30:00Z,28.4330,-82.6670,0.462,1111122 
COMPS,ioos:station:USF.COMPS:ARP:1,2014-06-01T07:36:00Z,28.4330,-82.6670,0.486,1111122 
COMPS,ioos:station:USF.COMPS:ARP:1,2014-06-01T07:42:00Z,28.4330,-82.6670,0.509,1111122 
COMPS,ioos:station:USF.COMPS:ARP:1,2014-06-01T07:48:00Z,28.4330,-82.6670,0.53,1111122 
COMPS,ioos:station:USF.COMPS:ARP:1,2014-06-01T07:54:00Z,28.4330,-82.6670,0.546,1111122 
COMPS,ioos:station:USF.COMPS:ARP:1,2014-06-01T08:06:00Z,28.4330,-82.6670,0.569,1111122 
COMPS,ioos:station:USF.COMPS:ARP:1,2014-06-01T08:12:00Z,28.4330,-82.6670,0.575,1111122 
COMPS,ioos:station:USF.COMPS:ARP:1,2014-06-01T08:18:00Z,28.4330,-82.6670,0.584,1111122 
COMPS,ioos:station:USF.COMPS:ARP:1,2014-06-01T08:24:00Z,28.4330,-82.6670,0.592,1111122 
COMPS,ioos:station:USF.COMPS:ARP:1,2014-06-01T08:30:00Z,28.4330,-82.6670,0.596,1111122 
COMPS,ioos:station:USF.COMPS:ARP:1,2014-06-01T08:36:00Z,28.4330,-82.6670,0.601,1111122 
COMPS,ioos:station:USF.COMPS:ARP:1,2014-06-01T08:42:00Z,28.4330,-82.6670,0.599,1111122 
COMPS,ioos:station:USF.COMPS:ARP:1,2014-06-01T08:48:00Z,28.4330,-82.6670,0.596,1111122 
COMPS,ioos:station:USF.COMPS:ARP:1,2014-06-01T08:54:00Z,28.4330,-82.6670,0.594,1111122 
COMPS,ioos:station:USF.COMPS:ARP:1,2014-06-01T09:00:00Z,28.4330,-82.6670,0.584,1111122 
COMPS,ioos:station:USF.COMPS:ARP:1,2014-06-01T09:06:00Z,28.4330,-82.6670,0.58,1111122 
COMPS,ioos:station:USF.COMPS:ARP:1,2014-06-01T09:12:00Z,28.4330,-82.6670,0.576,1111122 
COMPS,ioos:station:USF.COMPS:ARP:1,2014-06-01T09:18:00Z,28.4330,-82.6670,0.569,1111122 
COMPS,ioos:station:USF.COMPS:ARP:1,2014-06-01T09:24:00Z,28.4330,-82.6670,0.566,1111122 
COMPS,ioos:station:USF.COMPS:ARP:1,2014-06-01T09:30:00Z,28.4330,-82.6670,0.554,1111122 
COMPS,ioos:station:USF.COMPS:ARP:1,2014-06-01T09:36:00Z,28.4330,-82.6670,0.548,1111122 
COMPS,ioos:station:USF.COMPS:ARP:1,2014-06-01T09:42:00Z,28.4330,-82.6670,0.543,1111122 
COMPS,ioos:station:USF.COMPS:ARP:1,2014-06-01T09:48:00Z,28.4330,-82.6670,0.533,1111122 
COMPS,ioos:station:USF.COMPS:ARP:1,2014-06-01T09:54:00Z,28.4330,-82.6670,0.522,1111122 
COMPS,ioos:station:USF.COMPS:ARP:1,2014-06-01T10:00:00Z,28.4330,-82.6670,0.51,1111122 
COMPS,ioos:station:USF.COMPS:ARP:1,2014-06-01T10:06:00Z,28.4330,-82.6670,0.505,1111122 
COMPS,ioos:station:USF.COMPS:ARP:1,2014-06-01T10:12:00Z,28.4330,-82.6670,0.499,1111122 
COMPS,ioos:station:USF.COMPS:ARP:1,2014-06-01T10:18:00Z,28.4330,-82.6670,0.495,1111122 
COMPS,ioos:station:USF.COMPS:ARP:1,2014-06-01T10:24:00Z,28.4330,-82.6670,0.486,1111122 
COMPS,ioos:station:USF.COMPS:ARP:1,2014-06-01T10:30:00Z,28.4330,-82.6670,0.484,1111122 
COMPS,ioos:station:USF.COMPS:ARP:1,2014-06-01T10:36:00Z,28.4330,-82.6670,0.475,1111122 
COMPS,ioos:station:USF.COMPS:ARP:1,2014-06-01T10:42:00Z,28.4330,-82.6670,0.469,1111122 
COMPS,ioos:station:USF.COMPS:ARP:1,2014-06-01T10:48:00Z,28.4330,-82.6670,0.459,1111122 
COMPS,ioos:station:USF.COMPS:ARP:1,2014-06-01T10:54:00Z,28.4330,-82.6670,0.448,1111122 
COMPS,ioos:station:USF.COMPS:ARP:1,2014-06-01T11:00:00Z,28.4330,-82.6670,0.801,1111122 
COMPS,ioos:station:USF.COMPS:ARP:1,2014-06-01T11:06:00Z,28.4330,-82.6670,0.794,1111122 
COMPS,ioos:station:USF.COMPS:ARP:1,2014-06-01T11:12:00Z,28.4330,-82.6670,0.788,1111122 
COMPS,ioos:station:USF.COMPS:ARP:1,2014-06-01T11:18:00Z,28.4330,-82.6670,0.778,1111122 
COMPS,ioos:station:USF.COMPS:ARP:1,2014-06-01T11:24:00Z,28.4330,-82.6670,0.769,1111122 
COMPS,ioos:station:USF.COMPS:ARP:1,2014-06-01T11:30:00Z,28.4330,-82.6670,0.76,1111122 
COMPS,ioos:station:USF.COMPS:ARP:1,2014-06-01T11:36:00Z,28.4330,-82.6670,0.749,1111122 
COMPS,ioos:station:USF.COMPS:ARP:1,2014-06-01T11:42:00Z,28.4330,-82.6670,0.739,1111122 
COMPS,ioos:station:USF.COMPS:ARP:1,2014-06-01T11:48:00Z,28.4330,-82.6670,0.729,1111122 
COMPS,ioos:station:USF.COMPS:ARP:1,2014-06-01T11:54:00Z,28.4330,-82.6670,0.719,1111122 
COMPS,ioos:station:USF.COMPS:ARP:1,2014-06-01T12:00:00Z,28.4330,-82.6670,0.71,1111122 
COMPS,ioos:station:USF.COMPS:ARP:1,2014-06-01T12:06:00Z,28.4330,-82.6670,0.702,1111122 
COMPS,ioos:station:USF.COMPS:ARP:1,2014-06-01T12:12:00Z,28.4330,-82.6670,0.69,1111122 
COMPS,ioos:station:USF.COMPS:ARP:1,2014-06-01T12:18:00Z,28.4330,-82.6670,0.68,1111122 
COMPS,ioos:station:USF.COMPS:ARP:1,2014-06-01T12:24:00Z,28.4330,-82.6670,0.669,1111122 
COMPS,ioos:station:USF.COMPS:ARP:1,2014-06-01T12:30:00Z,28.4330,-82.6670,0.658,1111122 
COMPS,ioos:station:USF.COMPS:ARP:1,2014-06-01T12:36:00Z,28.4330,-82.6670,0.648,1111122 
COMPS,ioos:station:USF.COMPS:ARP:1,2014-06-01T12:42:00Z,28.4330,-82.6670,0.64,1111122 
COMPS,ioos:station:USF.COMPS:ARP:1,2014-06-01T12:48:00Z,28.4330,-82.6670,0.631,1111122 
COMPS,ioos:station:USF.COMPS:ARP:1,2014-06-01T12:54:00Z,28.4330,-82.6670,0.622,1111122 
COMPS,ioos:station:USF.COMPS:ARP:1,2014-06-01T13:00:00Z,28.4330,-82.6670,0.613,1111122 
COMPS,ioos:station:USF.COMPS:ARP:1,2014-06-01T13:06:00Z,28.4330,-82.6670,0.604,1111122 
COMPS,ioos:station:USF.COMPS:ARP:1,2014-06-01T13:12:00Z,28.4330,-82.6670,4.886,1111122 
COMPS,ioos:station:USF.COMPS:ARP:1,2014-06-01T13:18:00Z,28.4330,-82.6670,0.587,1111122 
COMPS,ioos:station:USF.COMPS:ARP:1,2014-06-01T13:24:00Z,28.4330,-82.6670,0.579,1111122 
COMPS,ioos:station:USF.COMPS:ARP:1,2014-06-01T13:30:00Z,28.4330,-82.6670,0.571,1111122 
COMPS,ioos:station:USF.COMPS:ARP:1,2014-06-01T13:36:00Z,28.4330,-82.6670,0.563,1111122 
COMPS,ioos:station:USF.COMPS:ARP:1,2014-06-01T13:42:00Z,28.4330,-82.6670,0.554,1111122 
COMPS,ioos:station:USF.COMPS:ARP:1,2014-06-01T13:48:00Z,28.4330,-82.6670,-0.243,1111122 
COMPS,ioos:station:USF.COMPS:ARP:1,2014-06-01T13:54:00Z,28.4330,-82.6670,-0.25,1111122 
COMPS,ioos:station:USF.COMPS:ARP:1,2014-06-01T14:00:00Z,28.4330,-82.6670,-0.256,1111122 
COMPS,ioos:station:USF.COMPS:ARP:1,2014-06-01T14:06:00Z,28.4330,-82.6670,-0.263,1111122 
COMPS,ioos:station:USF.COMPS:ARP:1,2014-06-01T14:12:00Z,28.4330,-82.6670,-0.268,1111122 
COMPS,ioos:station:USF.COMPS:ARP:1,2014-06-01T14:18:00Z,28.4330,-82.6670,-0.274,1111122 
COMPS,ioos:station:USF.COMPS:ARP:1,2014-06-01T14:24:00Z,28.4330,-82.6670,-0.274,1111122 
COMPS,ioos:station:USF.COMPS:ARP:1,2014-06-01T14:30:00Z,28.4330,-82.6670,-0.271,1111122 
COMPS,ioos:station:USF.COMPS:ARP:1,2014-06-01T14:36:00Z,28.4330,-82.6670,-0.267,1111122 
COMPS,ioos:station:USF.COMPS:ARP:1,2014-06-01T14:42:00Z,28.4330,-82.6670,-0.261,1111122 
COMPS,ioos:station:USF.COMPS:ARP:1,2014-06-01T14:48:00Z,28.4330,-82.6670,-0.251,1111122 
COMPS,ioos:station:USF.COMPS:ARP:1,2014-06-01T14:54:00Z,28.4330,-82.6670,-0.24,1111122 
COMPS,ioos:station:USF.COMPS:ARP:1,2014-06-01T15:06:00Z,28.4330,-82.6670,-0.217,1111122 
COMPS,ioos:station:USF.COMPS:ARP:1,2014-06-01T15:18:00Z,28.4330,-82.6670,-0.191,1111122 
COMPS,ioos:station:USF.COMPS:ARP:1,2014-06-01T15:24:00Z,28.4330,-82.6670,-0.177,1111122 
COMPS,ioos:station:USF.COMPS:ARP:1,2014-06-01T15:36:00Z,28.4330,-82.6670,-0.154,1111122 
COMPS,ioos:station:USF.COMPS:ARP:1,2014-06-01T15:48:00Z,28.4330,-82.6670,-0.133,1111122 
COMPS,ioos:station:USF.COMPS:ARP:1,2014-06-01T15:54:00Z,28.4330,-82.6670,-0.12,1111122 
COMPS,ioos:station:USF.COMPS:ARP:1,2014-06-01T16:00:00Z,28.4330,-82.6670,-0.108,1111122 
COMPS,ioos:station:USF.COMPS:ARP:1,2014-06-01T16:06:00Z,28.4330,-82.6670,-0.094,1111122 
COMPS,ioos:station:USF.COMPS:ARP:1,2014-06-01T16:18:00Z,28.4330,-82.6670,-0.063,1111122 
COMPS,ioos:station:USF.COMPS:ARP:1,2014-06-01T16:24:00Z,28.4330,-82.6670,-0.045,1111122 
COMPS,ioos:station:USF.COMPS:ARP:1,2014-06-01T16:30:00Z,28.4330,-82.6670,-0.027,1111122 
COMPS,ioos:station:USF.COMPS:ARP:1,2014-06-01T16:36:00Z,28.4330,-82.6670,-0.009,1111122 
COMPS,ioos:station:USF.COMPS:ARP:1,2014-06-01T16:48:00Z,28.4330,-82.6670,0.028,1111122 
COMPS,ioos:station:USF.COMPS:ARP:1,2014-06-01T16:54:00Z,28.4330,-82.6670,0.049,1111122 
COMPS,ioos:station:USF.COMPS:ARP:1,2014-06-01T17:00:00Z,28.4330,-82.6670,0.067,1111122 
COMPS,ioos:station:USF.COMPS:ARP:1,2014-06-01T17:06:00Z,28.4330,-82.6670,0.085,1111122 
COMPS,ioos:station:USF.COMPS:ARP:1,2014-06-01T17:12:00Z,28.4330,-82.6670,0.102,1111122 
COMPS,ioos:station:USF.COMPS:ARP:1,2014-06-01T17:18:00Z,28.4330,-82.6670,0.122,1111122 
COMPS,ioos:station:USF.COMPS:ARP:1,2014-06-01T17:24:00Z,28.4330,-82.6670,0.142,1111122 
COMPS,ioos:station:USF.COMPS:ARP:1,2014-06-01T17:30:00Z,28.4330,-82.6670,0.164,1111122 
COMPS,ioos:station:USF.COMPS:ARP:1,2014-06-01T17:36:00Z,28.4330,-82.6670,0.183,1111122 
COMPS,ioos:station:USF.COMPS:ARP:1,2014-06-01T17:42:00Z,28.4330,-82.6670,0.205,1111122 
COMPS,ioos:station:USF.COMPS:ARP:1,2014-06-01T17:48:00Z,28.4330,-82.6670,0.225,1111122 
COMPS,ioos:station:USF.COMPS:ARP:1,2014-06-01T17:54:00Z,28.4330,-82.6670,0.245,1111122 
COMPS,ioos:station:USF.COMPS:ARP:1,2014-06-01T18:00:00Z,28.4330,-82.6670,0.269,1111122 
COMPS,ioos:station:USF.COMPS:ARP:1,2014-06-01T18:06:00Z,28.4330,-82.6670,0.289,1111122 
COMPS,ioos:station:USF.COMPS:ARP:1,2014-06-01T18:12:00Z,28.4330,-82.6670,0.311,1111122 
COMPS,ioos:station:USF.COMPS:ARP:1,2014-06-01T18:18:00Z,28.4330,-82.6670,0.332,1111122 
COMPS,ioos:station:USF.COMPS:ARP:1,2014-06-01T18:30:00Z,28.4330,-82.6670,0.368,1111122 
COMPS,ioos:station:USF.COMPS:ARP:1,2014-06-01T18:36:00Z,28.4330,-82.6670,0.383,1111122 
COMPS,ioos:station:USF.COMPS:ARP:1,2014-06-01T18:42:00Z,28.4330,-82.6670,0.399,1111122 
COMPS,ioos:station:USF.COMPS:ARP:1,2014-06-01T18:48:00Z,28.4330,-82.6670,0.416,1111122 
COMPS,ioos:station:USF.COMPS:ARP:1,2014-06-01T18:54:00Z,28.4330,-82.6670,0.416,1111122 
COMPS,ioos:station:USF.COMPS:ARP:1,2014-06-01T19:00:00Z,28.4330,-82.6670,0.446,1111122 
COMPS,ioos:station:USF.COMPS:ARP:1,2014-06-01T19:06:00Z,28.4330,-82.6670,0.457,1111122 
COMPS,ioos:station:USF.COMPS:ARP:1,2014-06-01T19:12:00Z,28.4330,-82.6670,0.468,1111122 
COMPS,ioos:station:USF.COMPS:ARP:1,2014-06-01T19:18:00Z,28.4330,-82.6670,0.478,1111122 
COMPS,ioos:station:USF.COMPS:ARP:1,2014-06-01T19:24:00Z,28.4330,-82.6670,0.49,1111122 
COMPS,ioos:station:USF.COMPS:ARP:1,2014-06-01T19:30:00Z,28.4330,-82.6670,0.499,1111122 
COMPS,ioos:station:USF.COMPS:ARP:1,2014-06-01T19:36:00Z,28.4330,-82.6670,0.501,1111122 
COMPS,ioos:station:USF.COMPS:ARP:1,2014-06-01T19:42:00Z,28.4330,-82.6670,0.503,1111122 
COMPS,ioos:station:USF.COMPS:ARP:1,2014-06-01T19:48:00Z,28.4330,-82.6670,0.494,1111122 
COMPS,ioos:station:USF.COMPS:ARP:1,2014-06-01T19:54:00Z,28.4330,-82.6670,0.476,1111122 
COMPS,ioos:station:USF.COMPS:ARP:1,2014-06-01T20:00:00Z,28.4330,-82.6670,0.461,1111122 
COMPS,ioos:station:USF.COMPS:ARP:1,2014-06-01T20:06:00Z,28.4330,-82.6670,0.443,1111122 
COMPS,ioos:station:USF.COMPS:ARP:1,2014-06-01T20:12:00Z,28.4330,-82.6670,0.424,1111122 
COMPS,ioos:station:USF.COMPS:ARP:1,2014-06-01T20:18:00Z,28.4330,-82.6670,0.412,1111122 
COMPS,ioos:station:USF.COMPS:ARP:1,2014-06-01T20:24:00Z,28.4330,-82.6670,0.409,1111122 
COMPS,ioos:station:USF.COMPS:ARP:1,2014-06-01T20:30:00Z,28.4330,-82.6670,0.395,1111122 
COMPS,ioos:station:USF.COMPS:ARP:1,2014-06-01T20:36:00Z,28.4330,-82.6670,0.38,1111122 
COMPS,ioos:station:USF.COMPS:ARP:1,2014-06-01T20:42:00Z,28.4330,-82.6670,0.376,1111122 
COMPS,ioos:station:USF.COMPS:ARP:1,2014-06-01T20:48:00Z,28.4330,-82.6670,0.369,1111122 
COMPS,ioos:station:USF.COMPS:ARP:1,2014-06-01T20:54:00Z,28.4330,-82.6670,0.355,1111122 
COMPS,ioos:station:USF.COMPS:ARP:1,2014-06-01T21:00:00Z,28.4330,-82.6670,0.343,1111122 
COMPS,ioos:station:USF.COMPS:ARP:1,2014-06-01T21:06:00Z,28.4330,-82.6670,0.33,1111122 
COMPS,ioos:station:USF.COMPS:ARP:1,2014-06-01T21:12:00Z,28.4330,-82.6670,0.317,1111122 
COMPS,ioos:station:USF.COMPS:ARP:1,2014-06-01T21:18:00Z,28.4330,-82.6670,0.298,1111122 
COMPS,ioos:station:USF.COMPS:ARP:1,2014-06-01T21:24:00Z,28.4330,-82.6670,0.279,1111122 
COMPS,ioos:station:USF.COMPS:ARP:1,2014-06-01T21:30:00Z,28.4330,-82.6670,0.262,1111122 
COMPS,ioos:station:USF.COMPS:ARP:1,2014-06-01T21:36:00Z,28.4330,-82.6670,0.245,1111122 
COMPS,ioos:station:USF.COMPS:ARP:1,2014-06-01T21:42:00Z,28.4330,-82.6670,0.229,1111122 
COMPS,ioos:station:USF.COMPS:ARP:1,2014-06-01T21:48:00Z,28.4330,-82.6670,0.212,1111122 
COMPS,ioos:station:USF.COMPS:ARP:1,2014-06-01T22:00:00Z,28.4330,-82.6670,0.182,1111122 
COMPS,ioos:station:USF.COMPS:ARP:1,2014-06-01T22:06:00Z,28.4330,-82.6670,0.166,1111122 
COMPS,ioos:station:USF.COMPS:ARP:1,2014-06-01T22:12:00Z,28.4330,-82.6670,0.148,1111122 
COMPS,ioos:station:USF.COMPS:ARP:1,2014-06-01T22:18:00Z,28.4330,-82.6670,0.13,1111122 
COMPS,ioos:station:USF.COMPS:ARP:1,2014-06-01T22:24:00Z,28.4330,-82.6670,0.113,1111122 
COMPS,ioos:station:USF.COMPS:ARP:1,2014-06-01T22:30:00Z,28.4330,-82.6670,0.097,1111122 
COMPS,ioos:station:USF.COMPS:ARP:1,2014-06-01T22:36:00Z,28.4330,-82.6670,0.082,1111122 
COMPS,ioos:station:USF.COMPS:ARP:1,2014-06-01T22:48:00Z,28.4330,-82.6670,0.048,1111122 
COMPS,ioos:station:USF.COMPS:ARP:1,2014-06-01T22:54:00Z,28.4330,-82.6670,0.03,1111122 
COMPS,ioos:station:USF.COMPS:ARP:1,2014-06-01T23:00:00Z,28.4330,-82.6670,0.014,1111122 
COMPS,ioos:station:USF.COMPS:ARP:1,2014-06-01T23:06:00Z,28.4330,-82.6670,-0.001,1111122 
COMPS,ioos:station:USF.COMPS:ARP:1,2014-06-01T23:12:00Z,28.4330,-82.6670,-0.016,1111122 
COMPS,ioos:station:USF.COMPS:ARP:1,2014-06-01T23:18:00Z,28.4330,-82.6670,-0.031,1111122 
COMPS,ioos:station:USF.COMPS:ARP:1,2014-06-01T23:30:00Z,28.4330,-82.6670,-0.063,1111122 
COMPS,ioos:station:USF.COMPS:ARP:1,2014-06-01T23:36:00Z,28.4330,-82.6670,-0.078,1111122 
COMPS,ioos:station:USF.COMPS:ARP:1,2014-06-01T23:42:00Z,28.4330,-82.6670,-0.093,1111122 
COMPS,ioos:station:USF.COMPS:ARP:1,2014-06-01T23:48:00Z,28.4330,-82.6670,-0.108,1111122 
COMPS,ioos:station:USF.COMPS:ARP:1,2014-06-02T00:00:00Z,28.4330,-82.6670,-0.137,1111122 
COMPS,ioos:station:USF.COMPS:ARP:1,2014-06-02T00:06:00Z,28.4330,-82.6670,-0.151,1111122 
COMPS,ioos:station:USF.COMPS:ARP:1,2014-06-02T00:12:00Z,28.4330,-82.6670,-0.166,1111122 
COMPS,ioos:station:USF.COMPS:ARP:1,2014-06-02T00:18:00Z,28.4330,-82.6670,-0.182,1111122 
COMPS,ioos:station:USF.COMPS:ARP:1,2014-06-02T00:24:00Z,28.4330,-82.6670,-0.198,1111122 
COMPS,ioos:station:USF.COMPS:ARP:1,2014-06-02T00:30:00Z,28.4330,-82.6670,-0.213,1111122 
COMPS,ioos:station:USF.COMPS:ARP:1,2014-06-02T00:36:00Z,28.4330,-82.6670,-0.228,1111122 
COMPS,ioos:station:USF.COMPS:ARP:1,2014-06-02T00:42:00Z,28.4330,-82.6670,-0.243,1111122 
COMPS,ioos:station:USF.COMPS:ARP:1,2014-06-02T00:48:00Z,28.4330,-82.6670,-0.258,1111122 
COMPS,ioos:station:USF.COMPS:ARP:1,2014-06-02T00:54:00Z,28.4330,-82.6670,-0.272,1111122 
COMPS,ioos:station:USF.COMPS:ARP:1,2014-06-02T01:00:00Z,28.4330,-82.6670,-0.285,1111122 
COMPS,ioos:station:USF.COMPS:ARP:1,2014-06-02T01:06:00Z,28.4330,-82.6670,-0.299,1111122 
COMPS,ioos:station:USF.COMPS:ARP:1,2014-06-02T01:12:00Z,28.4330,-82.6670,-0.312,1111122 
COMPS,ioos:station:USF.COMPS:ARP:1,2014-06-02T01:18:00Z,28.4330,-82.6670,-0.324,1111122 
COMPS,ioos:station:USF.COMPS:ARP:1,2014-06-02T01:24:00Z,28.4330,-82.6670,-0.336,1111122 
COMPS,ioos:station:USF.COMPS:ARP:1,2014-06-02T01:30:00Z,28.4330,-82.6670,-0.348,1111122 
COMPS,ioos:station:USF.COMPS:ARP:1,2014-06-02T01:36:00Z,28.4330,-82.6670,-0.359,1111122 
COMPS,ioos:station:USF.COMPS:ARP:1,2014-06-02T01:42:00Z,28.4330,-82.6670,-0.37,1111122 
COMPS,ioos:station:USF.COMPS:ARP:1,2014-06-02T01:48:00Z,28.4330,-82.6670,-0.381,1111122 
COMPS,ioos:station:USF.COMPS:ARP:1,2014-06-02T02:00:00Z,28.4330,-82.6670,-0.401,1111122 
COMPS,ioos:station:USF.COMPS:ARP:1,2014-06-02T02:06:00Z,28.4330,-82.6670,-0.411,1111122 
COMPS,ioos:station:USF.COMPS:ARP:1,2014-06-02T02:12:00Z,28.4330,-82.6670,-0.421,1111122 
COMPS,ioos:station:USF.COMPS:ARP:1,2014-06-02T02:18:00Z,28.4330,-82.6670,-0.429,1111122 
COMPS,ioos:station:USF.COMPS:ARP:1,2014-06-02T02:24:00Z,28.4330,-82.6670,-0.438,1111122 
COMPS,ioos:station:USF.COMPS:ARP:1,2014-06-02T02:30:00Z,28.4330,-82.6670,-0.446,1111122 
COMPS,ioos:station:USF.COMPS:ARP:1,2014-06-02T02:36:00Z,28.4330,-82.6670,-0.454,1111122 
COMPS,ioos:station:USF.COMPS:ARP:1,2014-06-02T02:42:00Z,28.4330,-82.6670,-0.462,1111122 
COMPS,ioos:station:USF.COMPS:ARP:1,2014-06-02T02:48:00Z,28.4330,-82.6670,-0.469,1111122 
COMPS,ioos:station:USF.COMPS:ARP:1,2014-06-02T02:54:00Z,28.4330,-82.6670,-0.476,1111122 
COMPS,ioos:station:USF.COMPS:ARP:1,2014-06-02T03:00:00Z,28.4330,-82.6670,-0.483,1111122 
COMPS,ioos:station:USF.COMPS:ARP:1,2014-06-02T03:06:00Z,28.4330,-82.6670,-0.49,1111122 
COMPS,ioos:station:USF.COMPS:ARP:1,2014-06-02T03:12:00Z,28.4330,-82.6670,-0.496,1111122 
COMPS,ioos:station:USF.COMPS:ARP:1,2014-06-02T03:18:00Z,28.4330,-82.6670,-0.502,1111122 
COMPS,ioos:station:USF.COMPS:ARP:1,2014-06-02T03:24:00Z,28.4330,-82.6670,-0.507,1111122 
COMPS,ioos:station:USF.COMPS:ARP:1,2014-06-02T03:30:00Z,28.4330,-82.6670,-0.513,1111122 
COMPS,ioos:station:USF.COMPS:ARP:1,2014-06-02T03:36:00Z,28.4330,-82.6670,-0.518,1111122 
COMPS,ioos:station:USF.COMPS:ARP:1,2014-06-02T03:42:00Z,28.4330,-82.6670,-0.522,1111122 
COMPS,ioos:station:USF.COMPS:ARP:1,2014-06-02T03:48:00Z,28.4330,-82.6670,-0.528,1111122 
COMPS,ioos:station:USF.COMPS:ARP:1,2014-06-02T03:54:00Z,28.4330,-82.6670,-0.532,1111122 
COMPS,ioos:station:USF.COMPS:ARP:1,2014-06-02T04:00:00Z,28.4330,-82.6670,-0.537,1111122 
COMPS,ioos:station:USF.COMPS:ARP:1,2014-06-02T04:06:00Z,28.4330,-82.6670,-0.542,1111122 
COMPS,ioos:station:USF.COMPS:ARP:1,2014-06-02T04:12:00Z,28.4330,-82.6670,-0.546,1111122 